Regional Weather Roundup
Issued by NWS

Home | Current Version | Previous Version | Graphics & Text | Print | Product List | Glossary On
Versions: 1 2 3 4 5 6 7 8 9 10 11 12 13 14 15 16 17 18 19 20 21 22 23 24 25 26 27 28 29 30 31 32 33 34 35 36 37 38 39 40 41 42 43 44 45 46 47 48 49 50
000
ASUS43 KLSX 272059
RWRMO

WEATHER SUMMARY FOR MISSOURI
NATIONAL WEATHER SERVICE SPRINGFIELD MO
300 PM CST THU NOV 27 2014

NOTE: "FAIR" INDICATES FEW OR NO CLOUDS BELOW 12,000 FEET WITH NO
       SIGNIFICANT WEATHER AND/OR OBSTRUCTIONS TO VISIBILITY.
       CURRENT SKY AND/OR WEATHER CONDITIONS ARE NOT AVAILABLE FOR
       CHILLICOTHE AND FARMINGTON.

MOZ001>031-035>038-043-044-053-054-272200-
...NORTHERN AND WESTERN MISSOURI...

CITY           SKY/WX    TMP DP  RH WIND       PRES   REMARKS
KANSAS CTY INT MOSUNNY   35  22  58 SE6       30.41F
KANSAS C DTWN  SUNNY     37  21  52 NE7       30.42F
LEE`S SUMMIT   SUNNY     37  20  50 S6        30.42F
ST JOSEPH      SUNNY     31  16  54 E8        30.43F WCI  23
CHILLICOTHE      N/A     29  16  58 CALM      30.47F
KIRKSVILLE     PTSUNNY   26  15  63 N7        30.45F WCI  18

$$
MOZ066>068-077>081-088>096-101>105-272200-
...SOUTHWEST MISSOURI...

CITY           SKY/WX    TMP DP  RH WIND       PRES   REMARKS
SPRINGFIELD    SUNNY     42  20  41 S5        30.43F
JOPLIN         SUNNY     42  20  41 S3        30.44F

$$
MOZ032>034-039>042-045>050-055>058-069>072-272200-
...CENTRAL MISSOURI...

CITY           SKY/WX    TMP DP  RH WIND       PRES   REMARKS
COLUMBIA       CLOUDY    34  23  64 NW8       30.44F WCI  27
JEFFERSON CITY CLOUDY    35  22  58 W5        30.47S
ROLLA          CLOUDY    33  23  66 W6        30.41F WCI  28
SEDALIA        CLOUDY    34  22  61 CALM      30.46F
OSAGE BEACH    CLOUDY    37  21  52 W5        30.45S

$$
MOZ051-052-059>065-272200-
...EAST CENTRAL MISSOURI...

CITY           SKY/WX    TMP DP  RH WIND       PRES   REMARKS
ST LOUIS INTL  PTSUNNY   34  21  59 NW10      30.45F WCI  26
SPIRIT OF STL  SUNNY     36  21  54 NW10      30.45S WCI  28
ST CHARLES     MOSUNNY   32  19  58 NW10      30.46S WCI  24

$$
MOZ072>076-082>087-097>100-106>115-272200-
...SOUTH CENTRAL AND SOUTHEAST MISSOURI...

CITY           SKY/WX    TMP DP  RH WIND       PRES   REMARKS
CAPE GIRARDEAU MOSUNNY   38  26  62 NW6       30.46F
FARMINGTON     SUNNY     36  21  55 NW8       30.43S WCI  29
POPLAR BLUFF   SUNNY     43  23  45 W8        30.45S
WEST PLAINS    SUNNY     42  19  39 W7        30.43F

$$


USA.gov is the U.S. government's official web portal to all federal, state and local government web resources and services.